Somerville, NJ

2:19 PM EST on December 13, 2017 (GMT -0500)
Somerset

Weather History for KSMQ - November, 2012

Change the Weather History Date:

Thursday, November 22, 2012

  Actual Average Record
Temperature  
Mean Temperature 41 °F -  
Max Temperature 57 °F 48 °F 76 °F (1931)
Min Temperature 25 °F 30 °F 12 °F (2014)
Degree Days  
Heating Degree Days 24    
Moisture  
Dew Point 31 °F    
Average Humidity 78    
Maximum Humidity 96    
Minimum Humidity 47    
Precipitation  
Precipitation 0.01 in - - ()
Sea Level Pressure  
Sea Level Pressure 30.21 in    
Wind  
Wind Speed 1 mph (North)    
Max Wind Speed 5 mph    
Max Gust Speed -    
Visibility 10 miles    
Events      
Averages and records for this station are not official NWS values.
T = Trace of Precipitation, MM = Missing Value Source: NWS Daily Summary

Daily Weather History Graph

Daily Weather History Graph

Search for Another Location

Airport or City:

Trip Planner

Search our weather history database for the weather conditions in past years. The results will help you decide how hot, cold, wet, or windy it might be!

Date:

Astronomy

Nov. 22, 2012 Rise Set
Actual Time 6:53 AM EST 4:35 PM EST
Civil Twilight 6:24 AM EST 5:05 PM EST
Nautical Twilight 5:50 AM EST 5:39 PM EST
Astronomical Twilight 5:17 AM EST 6:11 PM EST
Moon 1:21 PM EST (11/22) 1:09 AM EST (11/22)
Length of Visible Light 10h 41m
Length of Day
9h 41m
Waxing Gibbous, 71% of the Moon is Illuminated
Nov 22
Waxing Gibbous
Nov 28
Full
Dec 6
Last Quarter
Dec 13
New
Dec 20
First Quarter

Hourly Weather History & Observations

Time (EST) Temp. Windchill Dew Point Humidity Pressure Visibility Wind Dir Wind Speed Gust Speed Precip Events Conditions
12:53 AM 27.0 °F - 24.1 °F 89% 30.23 in 10.0 mi Calm Calm - N/A   Clear
1:53 AM 26.1 °F 21.9 °F 24.1 °F 92% 30.24 in 10.0 mi NW 3.5 mph - N/A   Clear
2:53 AM 27.0 °F - 25.0 °F 92% 30.23 in 10.0 mi Calm Calm - N/A   Clear
3:53 AM 26.1 °F - 24.1 °F 92% 30.23 in 10.0 mi Calm Calm - N/A   Clear
4:53 AM 25.0 °F - 23.0 °F 92% 30.24 in 10.0 mi Calm Calm - N/A   Clear
5:53 AM 26.1 °F - 23.0 °F 88% 30.24 in 10.0 mi Calm Calm - N/A   Clear
6:53 AM 25.0 °F - 23.0 °F 92% 30.25 in 10.0 mi Calm Calm - N/A   Clear
7:53 AM 28.0 °F - 25.0 °F 88% 30.26 in 10.0 mi Calm Calm - N/A   Clear
8:53 AM 37.9 °F 34.4 °F 32.0 °F 79% 30.27 in 10.0 mi NNW 4.6 mph - 0.01 in   Clear
9:53 AM 48.9 °F - 37.0 °F 64% 30.27 in 10.0 mi Calm Calm - N/A   Clear
10:53 AM 52.0 °F - 39.0 °F 61% 30.25 in 10.0 mi NE 4.6 mph - N/A   Clear
11:53 AM 54.0 °F - 37.9 °F 55% 30.23 in 10.0 mi Calm Calm - N/A   Clear
12:53 PM 55.9 °F - 37.9 °F 51% 30.21 in 10.0 mi Calm Calm - N/A   Clear
1:53 PM 57.0 °F - 37.9 °F 49% 30.19 in 10.0 mi Variable 3.5 mph - N/A   Clear
2:53 PM 57.0 °F - 37.0 °F 47% 30.17 in 10.0 mi Calm Calm - N/A   Clear
3:53 PM 55.0 °F - 36.0 °F 49% 30.17 in 10.0 mi Calm Calm - N/A   Clear
4:53 PM 48.0 °F - 37.0 °F 66% 30.17 in 10.0 mi Calm Calm - N/A   Clear
5:53 PM 43.0 °F - 36.0 °F 76% 30.18 in 10.0 mi Calm Calm - N/A   Clear
6:53 PM 39.9 °F - 35.1 °F 83% 30.18 in 10.0 mi Calm Calm - N/A   Clear
7:53 PM 37.0 °F - 33.1 °F 86% 30.17 in 10.0 mi Calm Calm - N/A   Clear
8:53 PM 33.8 °F - 32.0 °F 93% 30.16 in 10.0 mi Calm Calm - N/A   Clear
9:53 PM 32.0 °F - 30.9 °F 96% 30.16 in 10.0 mi Calm Calm - N/A   Clear
10:53 PM 30.9 °F - 30.0 °F 96% 30.15 in 10.0 mi Calm Calm - N/A   Clear
11:53 PM 30.9 °F - 28.9 °F 92% 30.15 in 10.0 mi Calm Calm - N/A   Clear